User: anonymous   Login
Location: Borea
(45.6167°N, 23.0167°E)
Time: 05:50:58
(UTC+00:00)
Language:

IRIDIUM 106 - Orbit

View from above orbital plane
View from above orbital plane
View from above satellite
View from above satellite

Ground track
Ground track

The orbit data is extracted from the following two-line orbital elements,

1 41917U 17003A   23152.82251316  .00000301  00000-0  10031-3 0  9996
2 41917  86.4008 192.9402 0002280  83.1952 276.9503 14.34223023333912
Epoch (UTC): 01 June 2023 19:44:25
Eccentricity: 0.0002280
inclination: 86.4008°
perigee height: 776 km
apogee height: 779 km
right ascension of ascending node: 192.9402°
argument of perigee: 83.1952°
revolutions per day: 14.34223023
mean anomaly at epoch: 276.9503°
orbit number at epoch: 33391

The dashed part of the orbit path shows where the satellite is in the earth's shadow,  

DLR